AirNav   Air Wisconsin pilot careers
 
 597 users online  

1L4 Kidwell Airport
Cal Nev Ari, Nevada, USA

GOING TO CAL NEV ARI?


FAA INFORMATION EFFECTIVE 11 OCTOBER 2018

Location

FAA Identifier: 1L4
Lat/Long: 35-18-19.9780N / 114-52-57.9100W
35-18.332967N / 114-52.965167W
35.3055494 / -114.8827528
(estimated)
Elevation: 2605 ft. / 794 m (estimated)
Variation: 14E (1985)
Time zone: UTC -7 (UTC -8 during Standard Time)
Zip code: 89039

Airport Operations

Airport use: Open to the public
Control tower: no
ARTCC: LOS ANGELES CENTER
FSS: RENO FLIGHT SERVICE STATION
NOTAMs facility: RNO (NOTAM-D service available)
Attendance: CONTINUOUS
Wind indicator: yes
Segmented circle: no
Lights: SS-SR

Airport Communications

CTAF: 122.9
WX AWOS-3PT at IFP (18 nm SE): 119.825 (928-754-4462)

Nearby radio navigation aids

VOR radial/distance  VOR name  Freq  Var
GFSr039/17.8GOFFS VORTAC114.4015E
EEDr313/38.1NEEDLES VORTAC115.2015E

Airport Services

Parking: tiedowns
Bottled oxygen: NONE
Bulk oxygen: NONE

Runway Information

Runway 15/33

Dimensions: 4140 x 65 ft. / 1262 x 20 m
Surface: sand, in fair condition
RWY IS MAINLY PACKED SAND AND SOME GRVL; RWY EDGES AND ENDS ARE FRQLY SOFT SAND IN DRY CONDS; RWY EDGES BURMED WITH SHARP SOIL EDGES; VARIES FROM 4 INS TO 12 INS. BRUSH IN THE RWY SAFETY AREA AND UP TO THE RWY EDGES EXCEEDS 5 FT IN HEIGHT.
Runway edge lights: non-standard
NSTD LIRL; THLD LGTS 6 GREEN LGTS.
RUNWAY 15  RUNWAY 33
Gradient: 1.3%1.3%
Traffic pattern: leftleft
Markings: nonenone
Obstructions: 5 ft. fence, 10 ft. from runway, 2:1 slope to clear15 ft. road, 560 ft. from runway, 37:1 slope to clear

Airport Ownership and Management from official FAA records

Ownership: Privately-owned
Owner: NANCY KIDWELL
PO BOX 430
CAL-NEV-ARI, NV 89039
Phone 702-297-1118
Manager: RICHARD SMITH
AIRPORT ROAD, PO BOX 317
CAL-NEV-ARI, NV 89039
Phone (702) 271-2146
ALTN CTC RICHARD SMITH, 702-271-2146.

Airport Operational Statistics

Aircraft based on the field: 17
Single engine airplanes: 13
Multi engine airplanes: 1
Ultralights: 3
    
Aircraft operations: avg 92/week *
75% local general aviation
25% transient general aviation
* for 12-month period ending 31 October 2017

Additional Remarks

ARPT IS RESIDENTIAL AIRPARK.
BE ALERT TO AUTOMOBILE TFC ON RY 15/33.
+70 FT TOWER 350 FT LEFT OF CNTRLN RWY 15 AND ADJACENT TO THE THLD.
ULTRALIGHT ACTIVITY ON AND IN VICINITY OF AIRPORT.
USE W TWY AT YOUR OWN RISK, NOT MNTNED BY THE ARPT AND HAS LARGE SCATTERED ROCKS.
RWY SFC ABT 5100 FT IN LEN, WITH UNMARKED 500 FT DISPLACEMENTS.

Instrument Procedures

There are no published instrument procedures at 1L4.

Some nearby airports with instrument procedures:

KIFP - Laughlin/Bullhead International Airport (18 nm SE)
KEED - Needles Airport (35 nm S)
KBVU - Boulder City Municipal Airport (39 nm N)
KHND - Henderson Executive Airport (42 nm N)
KIGM - Kingman Airport (46 nm E)
 
Loc | Ops | Rwys | IFR | FBO | Links
Com | Nav | Svcs | Stats | Notes


 
Area around 1L4 (Kidwell Airport)
 
Road maps at: MapQuest Bing Google
 
Aerial photo
WARNING: Photo may not be current or correct
Aerial photo of 1L4 (Kidwell Airport)
Photo by Megan Artz
Photo taken 25-Oct-2008
on final approach to runway 33

Do you have a better or more recent aerial photo of Kidwell Airport that you would like to share? If so, please send us your photo.

 
Sectional chart

 
Airport distance calculator
Flying to Kidwell Airport? Find the distance to fly.

From to 1L4

Sunrise and sunset
Times for 17-Oct-2018
 Local
(UTC-7)
 Zulu
(UTC)
Morning civil twilight06:2313:23
Sunrise06:4913:49
Sunset18:0101:01
Evening civil twilight18:2701:27

Current date and time
Zulu (UTC)  17-Oct-2018 11:09:02
Local (UTC-7)  17-Oct-2018 04:09:02
 
METAR
KIFP 
30nm SE 
170050Z 05013KT 10SM BKN110 OVC130 23/M06 A3002
KEED 
35nm S 
171056Z AUTO 28005KT 10SM CLR 16/04 A3009 RMK AO2 SLP170 T01560039 $
KBVU 
39nm N 
171055Z AUTO 36003KT 10SM SCT036 SCT046 BKN050 11/01 A3015 RMK AO2
KHND 
42nm N 
171056Z AUTO 18006KT 10SM CLR 10/M01 A3016 RMK AO2 SLP205 T01001011 $
KIGM 
47nm E 
171051Z AUTO 08008KT 10SM CLR 08/02 A3017 RMK AO2 SLP178 T00830022
KLAS 
48nm N 
171056Z 00000KT 10SM FEW120 FEW150 13/M04 A3013 RMK AO2 SLP192 T01281044
TAF
KIFP 
30nm SE 
170520Z 1706/1806 01011KT P6SM BKN120 BKN200 FM171500 36017G26KT P6SM SCT120 BKN200 FM180100 36011KT P6SM FEW100
KEED 
35nm S 
170520Z 1706/1806 35010KT P6SM SCT120 BKN200 FM171700 02011KT P6SM SCT120 BKN200 FM180300 35007KT P6SM FEW100
NOTAMs
Click for the latest NOTAMs
NOTAMs are issued by the DoD/FAA and will open in a separate window not controlled by AirNav.

 

 
 

Would you like to see your business listed on this page?

 If your business provides an interesting product or service to pilots, flight crews, aircraft, or users of the Kidwell Airport, you should consider listing it here.  To start the listing process, click on the button below
 
Add a business
 

Other Pages about Kidwell Airport

rentor.com/...
 
Update a link
 
Copyright © AirNav, LLC. All rights reserved. Privacy Policy  Contact